Time,TemperatureF,DewpointF,PressureIn,WindDirection,WindDirectionDegrees,WindSpeedMPH,WindSpeedGustMPH,Humidity,HourlyPrecipIn,Conditions,Clouds,dailyrainin,SoftwareType,DateUTC
2013-06-19 00:02:00,66.0,65.0,-100.00,NW,320,2.0,4.0,97,0.00,,,0.58,,2013-06-19 04:02:00,
2013-06-19 00:12:00,66.0,65.0,-100.00,NW,320,2.0,4.0,97,0.00,,,0.58,,2013-06-19 04:12:00,
2013-06-19 00:23:00,66.0,65.0,-100.00,NNE,16,1.0,3.0,96,0.00,,,0.58,,2013-06-19 04:23:00,
2013-06-19 00:33:00,66.0,64.0,-100.00,SE,131,3.0,5.0,95,0.00,,,0.58,,2013-06-19 04:33:00,
2013-06-19 00:43:00,66.0,64.0,-100.00,SE,131,3.0,5.0,95,0.00,,,0.58,,2013-06-19 04:43:00,
2013-06-19 00:53:00,65.0,64.0,-100.00,ESE,120,2.0,5.0,95,0.00,,,0.58,,2013-06-19 04:53:00,
2013-06-19 01:01:00,65.0,64.0,-100.00,ESE,121,3.0,4.0,96,0.00,,,0.58,,2013-06-19 05:01:00,
2013-06-19 01:11:00,65.0,64.0,-100.00,ESE,121,3.0,4.0,96,0.00,,,0.58,,2013-06-19 05:11:00,
2013-06-19 01:23:00,65.0,64.0,-100.00,ESE,121,2.0,4.0,96,0.00,,,0.58,,2013-06-19 05:23:00,
2013-06-19 01:32:00,65.0,63.0,-100.00,ESE,103,0.0,2.0,96,0.00,,,0.62,,2013-06-19 05:32:00,
2013-06-19 01:43:00,65.0,63.0,-100.00,ESE,103,0.0,2.0,96,0.00,,,0.62,,2013-06-19 05:43:00,
2013-06-19 01:52:00,64.0,63.0,-100.00,ESE,117,0.0,0.0,96,0.00,,,0.62,,2013-06-19 05:52:00,
2013-06-19 02:02:00,64.0,63.0,-100.00,ESE,102,0.0,2.0,97,0.00,,,0.62,,2013-06-19 06:02:00,
2013-06-19 02:11:00,64.0,63.0,-100.00,ESE,102,0.0,2.0,97,0.00,,,0.62,,2013-06-19 06:11:00,
2013-06-19 02:22:00,64.0,63.0,-100.00,ESE,114,0.0,2.0,97,0.00,,,0.62,,2013-06-19 06:22:00,
2013-06-19 02:34:00,64.0,63.0,-100.00,ENE,66,2.0,4.0,97,0.00,,,0.62,,2013-06-19 06:34:00,
2013-06-19 02:43:00,64.0,63.0,-100.00,ENE,66,2.0,4.0,97,0.00,,,0.62,,2013-06-19 06:43:00,
2013-06-19 02:52:00,65.0,64.0,-100.00,NNW,330,1.0,5.0,97,0.00,,,0.62,,2013-06-19 06:52:00,
2013-06-19 03:01:00,65.0,64.0,-100.00,NNW,330,1.0,5.0,97,0.00,,,0.62,,2013-06-19 07:01:00,
2013-06-19 03:12:00,64.0,63.0,-100.00,NNW,337,2.0,6.0,97,0.04,,,0.64,,2013-06-19 07:12:00,
2013-06-19 03:22:00,64.0,63.0,-100.00,NNW,335,3.0,9.0,97,0.00,,,0.64,,2013-06-19 07:22:00,
2013-06-19 03:33:00,64.0,63.0,-100.00,NNW,330,2.0,7.0,97,0.00,,,0.64,,2013-06-19 07:33:00,
2013-06-19 03:43:00,64.0,63.0,-100.00,NNW,330,2.0,7.0,97,0.00,,,0.64,,2013-06-19 07:43:00,
2013-06-19 03:53:00,63.0,62.0,-100.00,NW,320,6.0,13.0,97,0.00,,,0.64,,2013-06-19 07:53:00,
2013-06-19 04:02:00,63.0,62.0,-100.00,NNW,329,4.0,11.0,97,0.00,,,0.64,,2013-06-19 08:02:00,
2013-06-19 04:11:00,63.0,62.0,-100.00,NNW,329,4.0,11.0,97,0.00,,,0.64,,2013-06-19 08:11:00,
2013-06-19 04:22:00,63.0,62.0,-100.00,NNW,328,6.0,13.0,97,0.00,,,0.64,,2013-06-19 08:22:00,
2013-06-19 04:34:00,62.0,62.0,-100.00,NNW,330,4.0,10.0,97,0.00,,,0.64,,2013-06-19 08:34:00,
2013-06-19 04:43:00,62.0,62.0,-100.00,NNW,330,4.0,10.0,97,0.00,,,0.64,,2013-06-19 08:43:00,
2013-06-19 04:54:00,62.0,62.0,-100.00,NNW,332,4.0,15.0,97,0.00,,,0.64,,2013-06-19 08:54:00,
2013-06-19 05:02:00,62.0,62.0,-100.00,NNW,332,4.0,15.0,97,0.00,,,0.64,,2013-06-19 09:02:00,
2013-06-19 05:12:00,62.0,62.0,-100.00,NNW,330,4.0,9.0,97,0.00,,,0.64,,2013-06-19 09:12:00,
2013-06-19 05:22:00,62.0,61.0,-100.00,NNW,333,5.0,12.0,97,0.00,,,0.64,,2013-06-19 09:22:00,
2013-06-19 05:34:00,62.0,61.0,-100.00,NNW,329,5.0,11.0,97,0.00,,,0.64,,2013-06-19 09:34:00,
2013-06-19 05:44:00,62.0,61.0,-100.00,NNW,329,5.0,11.0,97,0.00,,,0.64,,2013-06-19 09:44:00,
2013-06-19 05:53:00,62.0,61.0,-100.00,NNW,328,5.0,11.0,97,0.00,,,0.64,,2013-06-19 09:53:00,
2013-06-19 06:02:00,62.0,61.0,-100.00,NNW,332,3.0,7.0,97,0.00,,,0.64,,2013-06-19 10:02:00,
2013-06-19 06:12:00,62.0,61.0,-100.00,NNW,332,3.0,7.0,97,0.00,,,0.64,,2013-06-19 10:12:00,
2013-06-19 06:22:00,62.0,61.0,-100.00,NNW,333,4.0,7.0,98,0.00,,,0.64,,2013-06-19 10:22:00,
2013-06-19 06:33:00,62.0,61.0,-100.00,NNW,329,5.0,13.0,98,0.00,,,0.64,,2013-06-19 10:33:00,
2013-06-19 06:42:00,62.0,61.0,-100.00,NNW,329,5.0,13.0,98,0.00,,,0.64,,2013-06-19 10:42:00,
2013-06-19 06:53:00,61.0,61.0,-100.00,NW,322,7.0,14.0,98,0.00,,,0.64,,2013-06-19 10:53:00,
2013-06-19 07:02:00,61.0,61.0,-100.00,NW,326,6.0,16.0,98,0.00,,,0.64,,2013-06-19 11:02:00,
2013-06-19 07:12:00,61.0,61.0,-100.00,NW,326,6.0,16.0,98,0.00,,,0.64,,2013-06-19 11:12:00,
2013-06-19 07:22:00,61.0,61.0,-100.00,NW,322,7.0,13.0,98,0.00,,,0.64,,2013-06-19 11:22:00,
2013-06-19 07:33:00,61.0,61.0,-100.00,NW,320,6.0,12.0,97,0.00,,,0.64,,2013-06-19 11:33:00,
2013-06-19 07:43:00,61.0,61.0,-100.00,NW,320,6.0,12.0,97,0.00,,,0.64,,2013-06-19 11:43:00,
2013-06-19 07:54:00,61.0,60.0,-100.00,NW,320,6.0,12.0,96,0.00,,,0.64,,2013-06-19 11:54:00,
2013-06-19 08:02:00,62.0,60.0,-100.00,NW,319,8.0,16.0,95,0.00,,,0.64,,2013-06-19 12:02:00,
2013-06-19 08:12:00,62.0,60.0,-100.00,NW,319,8.0,16.0,95,0.00,,,0.64,,2013-06-19 12:12:00,
2013-06-19 08:22:00,62.0,60.0,-100.00,NW,320,7.0,14.0,95,0.00,,,0.64,,2013-06-19 12:22:00,
2013-06-19 08:34:00,62.0,59.0,-100.00,NW,320,6.0,12.0,93,0.00,,,0.64,,2013-06-19 12:34:00,
2013-06-19 08:44:00,62.0,59.0,-100.00,NW,320,6.0,12.0,93,0.00,,,0.64,,2013-06-19 12:44:00,
2013-06-19 08:53:00,62.0,59.0,-100.00,NW,319,6.0,13.0,92,0.00,,,0.64,,2013-06-19 12:53:00,
2013-06-19 09:02:00,62.0,59.0,-100.00,NW,319,6.0,13.0,92,0.00,,,0.64,,2013-06-19 13:02:00,
2013-06-19 09:12:00,62.0,60.0,-100.00,NW,323,3.0,8.0,93,0.00,,,0.64,,2013-06-19 13:12:00,
2013-06-19 09:22:00,62.0,60.0,-100.00,NW,323,3.0,8.0,93,0.00,,,0.64,,2013-06-19 13:22:00,
2013-06-19 09:33:00,62.0,60.0,-100.00,NW,320,3.0,6.0,94,0.00,,,0.64,,2013-06-19 13:33:00,
2013-06-19 09:43:00,62.0,60.0,-100.00,NW,322,3.0,6.0,94,0.00,,,0.64,,2013-06-19 13:43:00,
2013-06-19 09:54:00,62.0,60.0,-100.00,NW,316,4.0,8.0,92,0.00,,,0.64,,2013-06-19 13:54:00,
2013-06-19 10:02:00,62.0,60.0,-100.00,NNW,328,3.0,7.0,91,0.00,,,0.64,,2013-06-19 14:02:00,
2013-06-19 10:12:00,62.0,60.0,-100.00,NNW,328,3.0,7.0,91,0.00,,,0.64,,2013-06-19 14:12:00,
2013-06-19 10:22:00,62.0,60.0,-100.00,NW,311,3.0,6.0,91,0.00,,,0.64,,2013-06-19 14:22:00,
2013-06-19 10:33:00,62.0,58.0,-100.00,NW,315,4.0,7.0,88,0.00,,,0.64,,2013-06-19 14:33:00,
2013-06-19 10:44:00,62.0,58.0,-100.00,NW,315,4.0,7.0,88,0.00,,,0.64,,2013-06-19 14:44:00,
2013-06-19 10:53:00,62.0,59.0,-100.00,NW,319,4.0,8.0,90,0.00,,,0.62,,2013-06-19 14:53:00,
2013-06-19 11:02:00,63.0,59.0,-100.00,NW,322,4.0,7.0,88,0.00,,,0.58,,2013-06-19 15:02:00,
2013-06-19 11:11:00,63.0,59.0,-100.00,NW,322,4.0,7.0,88,0.00,,,0.58,,2013-06-19 15:11:00,
2013-06-19 11:22:00,63.0,59.0,-100.00,NW,322,4.0,7.0,88,0.00,,,0.58,,2013-06-19 15:22:00,
2013-06-19 11:33:00,63.0,59.0,-100.00,NW,308,6.0,8.0,86,0.00,,,0.53,,2013-06-19 15:33:00,
2013-06-19 11:43:00,63.0,59.0,-100.00,NW,308,6.0,8.0,86,0.00,,,0.53,,2013-06-19 15:43:00,
2013-06-19 11:53:00,64.0,59.0,-100.00,NW,308,4.0,6.0,84,0.00,,,0.48,,2013-06-19 15:53:00,
2013-06-19 12:02:00,64.0,59.0,-100.00,NW,308,4.0,6.0,84,0.00,,,0.48,,2013-06-19 16:02:00,
2013-06-19 12:11:00,64.0,60.0,-100.00,NW,308,5.0,9.0,85,0.00,,,0.48,,2013-06-19 16:11:00,
2013-06-19 12:22:00,64.0,60.0,-100.00,NW,308,5.0,9.0,85,0.00,,,0.48,,2013-06-19 16:22:00,
2013-06-19 12:34:00,66.0,60.0,-100.00,NW,318,3.0,6.0,81,0.00,,,0.39,,2013-06-19 16:34:00,
2013-06-19 12:43:00,66.0,60.0,-100.00,NW,318,3.0,6.0,81,0.00,,,0.39,,2013-06-19 16:43:00,
2013-06-19 12:53:00,66.0,60.0,-100.00,NW,318,3.0,6.0,81,0.00,,,0.39,,2013-06-19 16:53:00,
2013-06-19 13:02:00,66.0,60.0,-100.00,NW,311,6.0,9.0,80,0.00,,,0.29,,2013-06-19 17:02:00,
2013-06-19 13:12:00,66.0,60.0,-100.00,NW,311,6.0,9.0,80,0.00,,,0.29,,2013-06-19 17:12:00,
2013-06-19 13:22:00,66.0,60.0,-100.00,NW,311,6.0,9.0,80,0.00,,,0.29,,2013-06-19 17:22:00,
2013-06-19 13:34:00,67.0,60.0,-100.00,NW,308,5.0,9.0,79,0.00,,,0.26,,2013-06-19 17:34:00,
2013-06-19 13:43:00,68.0,60.0,-100.00,NW,313,5.0,9.0,76,0.00,,,0.24,,2013-06-19 17:43:00,
2013-06-19 13:53:00,69.0,60.0,-100.00,NW,304,7.0,10.0,74,0.00,,,0.23,,2013-06-19 17:53:00,
2013-06-19 14:02:00,71.0,60.0,-100.00,WNW,301,4.0,9.0,70,0.00,,,0.22,,2013-06-19 18:02:00,
2013-06-19 14:12:00,71.0,60.0,-100.00,WNW,301,4.0,9.0,70,0.00,,,0.22,,2013-06-19 18:12:00,
2013-06-19 14:24:00,71.0,61.0,-100.00,WSW,244,3.0,11.0,69,0.00,,,0.21,,2013-06-19 18:24:00,
2013-06-19 14:33:00,72.0,59.0,-100.00,NW,313,5.0,9.0,65,0.00,,,0.20,,2013-06-19 18:33:00,
2013-06-19 14:44:00,72.0,59.0,-100.00,NW,313,5.0,9.0,65,0.00,,,0.20,,2013-06-19 18:44:00,
2013-06-19 14:53:00,71.0,58.0,-100.00,NW,315,4.0,8.0,63,0.00,,,0.19,,2013-06-19 18:53:00,
2013-06-19 15:01:00,72.0,60.0,-100.00,NW,315,2.0,6.0,65,0.00,,,0.17,,2013-06-19 19:01:00,
2013-06-19 15:12:00,72.0,60.0,-100.00,NW,315,2.0,6.0,65,0.00,,,0.17,,2013-06-19 19:12:00,
2013-06-19 15:22:00,72.0,60.0,-100.00,WSW,254,4.0,8.0,65,0.00,,,0.14,,2013-06-19 19:22:00,
2013-06-19 15:32:00,72.0,59.0,-100.00,NW,304,2.0,4.0,63,0.00,,,0.13,,2013-06-19 19:32:00,
2013-06-19 15:43:00,72.0,59.0,-100.00,NW,304,2.0,4.0,63,0.00,,,0.13,,2013-06-19 19:43:00,
2013-06-19 15:53:00,72.0,59.0,-100.00,NW,304,2.0,4.0,63,0.00,,,0.13,,2013-06-19 19:53:00,
2013-06-19 16:02:00,71.0,60.0,-100.00,ENE,78,2.0,7.0,68,0.00,,,0.12,,2013-06-19 20:02:00,
2013-06-19 16:12:00,71.0,60.0,-100.00,ENE,78,2.0,7.0,68,0.00,,,0.12,,2013-06-19 20:12:00,
2013-06-19 16:22:00,72.0,60.0,-100.00,SSE,160,4.0,7.0,65,0.00,,,0.11,,2013-06-19 20:22:00,
2013-06-19 16:33:00,72.0,60.0,-100.00,SSE,160,4.0,7.0,65,0.00,,,0.11,,2013-06-19 20:33:00,
2013-06-19 16:42:00,71.0,61.0,-100.00,SSE,158,4.0,6.0,69,0.00,,,0.11,,2013-06-19 20:42:00,
2013-06-19 16:52:00,73.0,60.0,-100.00,SSE,162,4.0,8.0,64,0.00,,,0.11,,2013-06-19 20:52:00,
2013-06-19 17:02:00,73.0,60.0,-100.00,SSE,162,4.0,8.0,64,0.00,,,0.11,,2013-06-19 21:02:00,
2013-06-19 17:12:00,73.0,61.0,-100.00,South,169,3.0,6.0,65,0.00,,,0.11,,2013-06-19 21:12:00,
2013-06-19 17:22:00,72.0,61.0,-100.00,SSE,161,4.0,7.0,66,0.00,,,0.10,,2013-06-19 21:22:00,
2013-06-19 17:33:00,73.0,60.0,-100.00,SSE,150,4.0,7.0,63,0.00,,,0.09,,2013-06-19 21:33:00,
2013-06-19 17:44:00,73.0,60.0,-100.00,SSE,150,4.0,7.0,63,0.00,,,0.09,,2013-06-19 21:44:00,
2013-06-19 17:52:00,74.0,58.0,-100.00,SSE,152,4.0,6.0,59,0.00,,,0.09,,2013-06-19 21:52:00,
2013-06-19 18:02:00,74.0,58.0,-100.00,SSE,152,4.0,6.0,59,0.00,,,0.09,,2013-06-19 22:02:00,
2013-06-19 18:11:00,76.0,59.0,-100.00,SW,230,2.0,5.0,56,0.00,,,0.09,,2013-06-19 22:11:00,
2013-06-19 18:22:00,74.0,60.0,-100.00,SE,143,3.0,6.0,60,0.00,,,0.09,,2013-06-19 22:22:00,
2013-06-19 18:34:00,74.0,60.0,-100.00,SSE,162,4.0,7.0,61,0.00,,,0.09,,2013-06-19 22:34:00,
2013-06-19 18:43:00,74.0,60.0,-100.00,SSE,162,4.0,7.0,61,0.00,,,0.09,,2013-06-19 22:43:00,
2013-06-19 18:53:00,72.0,61.0,-100.00,ESE,120,2.0,4.0,69,0.00,,,0.09,,2013-06-19 22:53:00,
2013-06-19 19:02:00,72.0,61.0,-100.00,ESE,120,2.0,4.0,69,0.00,,,0.09,,2013-06-19 23:02:00,
2013-06-19 19:12:00,72.0,62.0,-100.00,SSE,148,2.0,5.0,71,0.00,,,0.09,,2013-06-19 23:12:00,
2013-06-19 19:23:00,72.0,62.0,-100.00,SSE,148,2.0,5.0,71,0.00,,,0.09,,2013-06-19 23:23:00,
2013-06-19 19:34:00,72.0,62.0,-100.00,SSE,160,2.0,4.0,70,0.00,,,0.09,,2013-06-19 23:34:00,
2013-06-19 19:43:00,72.0,62.0,-100.00,SSE,160,2.0,4.0,70,0.00,,,0.09,,2013-06-19 23:43:00,
2013-06-19 19:52:00,71.0,64.0,-100.00,SE,144,2.0,4.0,78,0.00,,,0.09,,2013-06-19 23:52:00,
2013-06-19 20:02:00,70.0,63.0,-100.00,SE,138,1.0,3.0,80,0.00,,,0.09,,2013-06-20 00:02:00,
2013-06-19 20:12:00,70.0,63.0,-100.00,SE,138,1.0,3.0,80,0.00,,,0.09,,2013-06-20 00:12:00,
2013-06-19 20:22:00,70.0,63.0,-100.00,SE,138,1.0,3.0,80,0.00,,,0.09,,2013-06-20 00:22:00,
2013-06-19 20:34:00,69.0,63.0,-100.00,ESE,116,0.0,1.0,82,0.00,,,0.09,,2013-06-20 00:34:00,
2013-06-19 20:44:00,69.0,63.0,-100.00,ESE,116,0.0,1.0,82,0.00,,,0.09,,2013-06-20 00:44:00,
2013-06-19 20:52:00,67.0,62.0,-100.00,ESE,116,1.0,2.0,84,0.00,,,0.09,,2013-06-20 00:52:00,
2013-06-19 21:02:00,67.0,62.0,-100.00,ESE,116,1.0,2.0,84,0.00,,,0.09,,2013-06-20 01:02:00,
2013-06-19 21:12:00,65.0,62.0,-100.00,ESE,109,1.0,2.0,87,0.00,,,0.09,,2013-06-20 01:12:00,
2013-06-19 21:22:00,65.0,62.0,-100.00,ESE,104,0.0,2.0,89,0.00,,,0.09,,2013-06-20 01:22:00,
2013-06-19 21:33:00,64.0,62.0,-100.00,ESE,104,0.0,2.0,91,0.00,,,0.09,,2013-06-20 01:33:00,
2013-06-19 21:44:00,64.0,62.0,-100.00,ESE,104,0.0,2.0,91,0.00,,,0.09,,2013-06-20 01:44:00,
2013-06-19 21:53:00,64.0,62.0,-100.00,SE,127,1.0,2.0,91,0.00,,,0.09,,2013-06-20 01:53:00,
2013-06-19 22:02:00,64.0,62.0,-100.00,SE,127,1.0,2.0,91,0.00,,,0.09,,2013-06-20 02:02:00,
2013-06-19 22:12:00,64.0,62.0,-100.00,SE,130,2.0,4.0,91,0.00,,,0.09,,2013-06-20 02:12:00,
2013-06-19 22:24:00,64.0,62.0,-100.00,SE,138,2.0,3.0,91,0.00,,,0.09,,2013-06-20 02:24:00,
2013-06-19 22:34:00,63.0,62.0,-100.00,SE,138,2.0,4.0,93,0.00,,,0.09,,2013-06-20 02:34:00,
2013-06-19 22:43:00,63.0,62.0,-100.00,SE,138,2.0,4.0,93,0.00,,,0.09,,2013-06-20 02:43:00,
2013-06-19 22:52:00,63.0,61.0,-100.00,SE,134,2.0,3.0,93,0.00,,,0.09,,2013-06-20 02:52:00,
2013-06-19 23:02:00,63.0,61.0,-100.00,SE,136,2.0,3.0,94,0.00,,,0.09,,2013-06-20 03:02:00,
2013-06-19 23:12:00,63.0,61.0,-100.00,SE,136,2.0,3.0,94,0.00,,,0.09,,2013-06-20 03:12:00,
2013-06-19 23:22:00,63.0,61.0,-100.00,SE,136,2.0,3.0,94,0.00,,,0.09,,2013-06-20 03:22:00,
2013-06-19 23:33:00,63.0,61.0,-100.00,SE,136,2.0,2.0,95,0.00,,,0.09,,2013-06-20 03:33:00,
2013-06-19 23:43:00,63.0,61.0,-100.00,SE,136,2.0,2.0,95,0.00,,,0.09,,2013-06-20 03:43:00,
2013-06-19 23:54:00,63.0,61.0,-100.00,SE,128,2.0,3.0,95,0.00,,,0.07,,2013-06-20 03:54:00,